Weather History for Whitefield, NH

Change the Weather History Date:

Wednesday, May 28, 2014

  Actual Average Record
Temperature  
Mean Temperature 47 °F -  
Max Temperature 59 °F 65 °F 81 °F (2006)
Min Temperature 36 °F 38 °F 28 °F (1997)
Degree Days  
Heating Degree Days 18    
Moisture  
Dew Point 42 °F    
Average Humidity 79    
Maximum Humidity 93    
Minimum Humidity 59    
Precipitation  
Precipitation 0.09 in - - ()
Sea Level Pressure  
Sea Level Pressure 30.08 in    
Wind  
Wind Speed 6 mph (ESE)    
Max Wind Speed 10 mph    
Max Gust Speed 17 mph    
Visibility 10 miles    
Events Rain    
Averages and records for this station are not official NWS values.
T = Trace of Precipitation, MM = Missing Value Source: NWS Daily Summary

Daily Weather History Graph

Daily Weather History Graph

Search for Another Location

Airport:

Trip Planner

Search our weather history database for the weather conditions in past years. The results will help you decide how hot, cold, wet, or windy it might be!

Date:

Astronomy

May. 28, 2014 Rise Set
Actual Time 5:07 AM EDT 8:19 PM EDT
Civil Twilight 4:32 AM EDT 8:55 PM EDT
Nautical Twilight 3:46 AM EDT 9:41 PM EDT
Astronomical Twilight 2:51 AM EDT 10:37 PM EDT
Moon 5:14 AM EDT (5/28) 8:13 PM EDT (5/28)
Length of Visible Light 16h 23m
Length of Day
15h 12m
Waning Crescent, 0% of the Moon is Illuminated
May 28
Waning Crescent
May 28
New
Jun 5
First Quarter
Jun 13
Full
Jun 19
Last Quarter

Hourly Weather History & Observations

Time (EDT) Temp. Windchill Dew Point Humidity Pressure Visibility Wind Dir Wind Speed Gust Speed Precip Events Conditions
12:11 AM 48.9 °F - 44.1 °F 83% 29.93 in 7.0 mi SSE 10.4 mph 17.3 mph 0.02 in Rain Light Rain
12:40 AM 48.0 °F - 43.0 °F 83% 29.93 in 8.0 mi NNW 3.5 mph - 0.04 in Rain Light Rain
12:52 AM 48.0 °F - 44.1 °F 86% 29.95 in 8.0 mi Variable 3.5 mph - 0.05 in Rain Light Rain
1:52 AM 48.9 °F - 43.0 °F 80% 29.94 in 10.0 mi Variable 3.5 mph - 0.03 in   Overcast
2:52 AM 46.9 °F - 44.1 °F 90% 29.96 in 10.0 mi West 3.5 mph - 0.00 in   Overcast
3:52 AM 48.0 °F - 42.1 °F 80% 29.96 in 10.0 mi Variable 3.5 mph - N/A   Overcast
4:52 AM 46.9 °F - 43.0 °F 86% 29.96 in 10.0 mi Calm Calm - N/A   Overcast
5:52 AM 46.9 °F - 42.1 °F 83% 29.98 in 10.0 mi East 6.9 mph - N/A   Overcast
6:52 AM 48.0 °F - 42.1 °F 80% 30.01 in 10.0 mi East 6.9 mph - N/A   Overcast
7:07 AM 48.0 °F - 42.1 °F 80% 29.99 in 10.0 mi East 8.1 mph - N/A   Overcast
7:52 AM 48.0 °F - 42.1 °F 80% 30.03 in 10.0 mi East 6.9 mph - N/A   Overcast
8:52 AM 48.0 °F - 43.0 °F 83% 30.05 in 10.0 mi East 4.6 mph - N/A   Overcast
9:52 AM 48.0 °F - 42.1 °F 80% 30.08 in 10.0 mi East 9.2 mph - N/A   Overcast
10:52 AM 48.9 °F - 44.1 °F 83% 30.09 in 10.0 mi East 8.1 mph - 0.00 in Rain Light Rain
11:52 AM 50.0 °F - 44.1 °F 80% 30.12 in 9.0 mi East 5.8 mph - 0.01 in   Overcast
12:52 PM 50.0 °F - 43.0 °F 77% 30.14 in 10.0 mi East 8.1 mph - N/A   Overcast
1:23 PM 52.0 °F - 44.1 °F 74% 30.12 in 10.0 mi East 10.4 mph - N/A   Overcast
3:27 PM 57.0 °F - 45.0 °F 64% 30.13 in 10.0 mi SE 8.1 mph - N/A   Overcast
3:47 PM 55.4 °F - 44.6 °F 67% 30.13 in 10.0 mi SE 5.8 mph - N/A   Overcast
3:52 PM 55.9 °F - 43.0 °F 62% 30.14 in 10.0 mi ESE 8.1 mph - N/A   Mostly Cloudy
4:52 PM 55.9 °F - 43.0 °F 62% 30.16 in 10.0 mi East 10.4 mph 16.1 mph N/A   Overcast
5:52 PM 55.9 °F - 43.0 °F 62% 30.17 in 10.0 mi ENE 9.2 mph - N/A   Mostly Cloudy
7:52 PM 54.0 °F - 39.9 °F 59% 30.18 in 10.0 mi ESE 3.5 mph - N/A   Clear
8:52 PM 46.0 °F - 43.0 °F 89% 30.20 in 10.0 mi Calm Calm - N/A   Clear
9:52 PM 42.1 °F - 39.0 °F 89% 30.22 in 10.0 mi Calm Calm - N/A   Clear
10:52 PM 39.0 °F - 37.0 °F 93% 30.24 in 10.0 mi Calm Calm - N/A   Clear
11:29 PM 37.0 °F 34.5 °F 35.1 °F 93% 30.22 in 10.0 mi ESE 3.5 mph - N/A   Partly Cloudy
11:52 PM 36.0 °F - 34.0 °F 93% 30.25 in 10.0 mi Calm Calm - N/A   Partly Cloudy